Knoxville Regional Airport (TYS)

 

Airport Diagram
Current Weather/Forecast (VFR Conditions)
METAR KTYS 202353Z 00000KT 10SM FEW040 SCT120 BKN250 27/22 A3002 RMK AO2 SLP154 60000 T02720217 10322 20261 53004
TAF KTYS 202341Z 2100/2124 21004KT P6SM SCT040 BKN120 FM211200 21003KT P6SM SCT040 PROB30 2112/2118 5SM TSRA BKN040CB FM211800 21003KT P6SM SCT040 PROB30 2118/2122 4SM TSRA BKN040CB FM212200 23008KT P6SM VCTS SCT040CB BKN150

All Charts
General
Chart Name Download
AIRPORT DIAGRAM
TAKEOFF MINIMUMS
ALTERNATE MINIMUMS
RADAR MINIMUMS
HOT SPOT

Departures
Chart Name Download
KNOXVILLE SIX

Approaches
Chart Name Download
HI-ILS OR LOC RWY 05L
HI-ILS OR LOC RWY 23L
HI-ILS OR LOC RWY 23R
ILS OR LOC RWY 05L
ILS OR LOC RWY 23L
ILS OR LOC RWY 23R
ILS RWY 23R (SA CAT I)
ILS RWY 23R (CAT II)
RNAV (GPS) RWY 05L
RNAV (GPS) RWY 05R
RNAV (GPS) RWY 23L
RNAV (GPS) RWY 23R
HI-VOR/DME OR TACAN RWY 05L
HI-VOR/DME OR TACAN RWY 23R
VOR RWY 23L
VOR RWY 23R


Inbound Traffic (Arrivals)

No inbound traffic.


Outbound Traffic (Departures)
Callsign Aircraft Rules Destination Route
UAL748 B732/L IFR KIAH GQO VUZ MEI AEX DOOBI2